timestamp,surface_pressure_avg,surface_temp_avg,battery_voltage,lat,long
2021-03-02 00:09:01+00:00,346.5662,1.14,12.41,47.84626,-54.09684
2021-03-02 00:19:01+00:00,351.2513,1.18,12.41,47.84626,-54.09684
2021-03-02 00:29:01+00:00,351.0496,1.19,12.41,47.84626,-54.09684
2021-03-02 00:39:01+00:00,352.4896,1.16,12.41,47.84626,-54.09684
2021-03-02 00:49:01+00:00,363.5729,1.18,12.41,47.84626,-54.09684
2021-03-02 00:59:01+00:00,370.7697,1.2,12.41,47.84626,-54.09684
2021-03-02 01:09:01+00:00,365.0312,1.13,12.41,47.84626,-54.09684
2021-03-02 01:19:01+00:00,369.5963,1.11,12.41,47.84626,-54.09684
2021-03-02 01:29:01+00:00,380.1296,1.16,12.41,47.84626,-54.09684
2021-03-02 01:39:01+00:00,375.7112,1.1,12.41,47.84626,-54.09684
2021-03-02 01:49:01+00:00,364.4047,1.1,12.41,47.84626,-54.09684
2021-03-02 01:59:01+00:00,377.11300000000006,1.14,12.41,47.84626,-54.09684
2021-03-02 02:09:01+00:00,383.4797,1.18,12.41,47.84626,-54.09684
2021-03-02 02:19:01+00:00,372.718,1.16,12.41,47.84626,-54.09684
2021-03-02 02:29:01+00:00,362.9697,1.1,12.41,47.84626,-54.09684
2021-03-02 02:39:01+00:00,358.3445,1.13,12.41,47.84626,-54.09684
2021-03-02 02:49:01+00:00,352.2113,1.1,12.41,47.84626,-54.09684
2021-03-02 02:59:01+00:00,342.2529,1.1,12.41,47.84626,-54.09684
2021-03-02 03:09:01+00:00,342.2913,1.11,12.41,47.84626,-54.09684
2021-03-02 03:19:01+00:00,336.9413,1.1,12.41,47.84626,-54.09684
2021-03-02 03:29:01+00:00,327.3913,1.1,12.41,47.84626,-54.09684
2021-03-02 03:39:01+00:00,325.253,1.1,12.41,47.84626,-54.09684
2021-03-02 03:49:01+00:00,318.7947,1.1,12.41,47.84626,-54.09684
2021-03-02 03:59:01+00:00,312.3213,1.1,12.41,47.84626,-54.09684
2021-03-02 04:09:01+00:00,308.2512,1.1,12.41,47.84626,-54.09684
2021-03-02 04:19:01+00:00,299.8864,1.1,12.41,47.84626,-54.09684
2021-03-02 04:29:01+00:00,283.473,1.1,12.41,47.84626,-54.09684
2021-03-02 04:39:01+00:00,275.8898,1.09,12.41,47.84626,-54.09684
2021-03-02 04:49:01+00:00,278.5347,1.1,12.41,47.84626,-54.09684
2021-03-02 04:59:01+00:00,276.9864,1.1,12.41,47.84626,-54.09684
2021-03-02 05:09:01+00:00,270.3664,1.1,12.41,47.84626,-54.09684
2021-03-02 05:19:01+00:00,261.7414,1.1,12.41,47.84626,-54.09684
2021-03-02 05:29:01+00:00,255.7331,1.09,12.41,47.84626,-54.09684
2021-03-02 05:39:01+00:00,243.5114,1.09,12.41,47.84626,-54.09684
2021-03-02 05:49:01+00:00,233.6347,1.07,12.41,47.84626,-54.09684
2021-03-02 05:59:01+00:00,222.7898,1.06,12.41,47.84626,-54.09684
2021-03-02 06:09:01+00:00,213.0865,1.04,12.41,47.84626,-54.09684
2021-03-02 06:19:01+00:00,204.6531,1.04,12.41,47.84626,-54.09684
2021-03-02 06:29:01+00:00,193.9581,1.04,12.41,47.84626,-54.09684
2021-03-02 06:39:01+00:00,184.6665,1.0,12.41,47.84626,-54.09684
2021-03-02 06:49:01+00:00,181.2948,1.0,12.41,47.84626,-54.09684
2021-03-02 06:59:01+00:00,180.7964,1.0,12.41,47.84626,-54.09684
2021-03-02 07:09:01+00:00,178.4065,1.01,12.41,47.84626,-54.09684
2021-03-02 07:19:01+00:00,175.0448,1.03,12.41,47.84626,-54.09684
2021-03-02 07:29:01+00:00,172.3932,1.04,12.41,47.84626,-54.09684
2021-03-02 07:39:01+00:00,166.4032,1.02,12.41,47.84626,-54.09684
2021-03-02 07:49:01+00:00,167.4098,1.03,12.41,47.84626,-54.09684
2021-03-02 07:59:01+00:00,171.7931,1.04,12.41,47.84626,-54.09684
2021-03-02 08:09:01+00:00,168.5315,1.07,12.41,47.84626,-54.09684
2021-03-02 08:19:01+00:00,171.2215,1.06,12.41,47.84626,-54.09684
2021-03-02 08:29:01+00:00,180.7948,1.07,12.41,47.84626,-54.09684
2021-03-02 08:39:01+00:00,189.6298,1.08,12.41,47.84626,-54.09684
2021-03-02 08:49:01+00:00,198.3197,1.05,12.41,47.84626,-54.09684
2021-03-02 08:59:01+00:00,199.9015,1.0,12.41,47.84626,-54.09684
2021-03-02 09:09:01+00:00,205.6398,1.0,12.41,47.84626,-54.09684
2021-03-02 09:19:01+00:00,220.2798,1.0,12.41,47.84626,-54.09684
2021-03-02 09:29:01+00:00,229.2864,1.07,12.41,47.84626,-54.09684
2021-03-02 09:39:01+00:00,228.0598,1.08,12.41,47.84626,-54.09684
2021-03-02 09:49:01+00:00,231.9798,1.07,12.41,47.84626,-54.09684
2021-03-02 09:59:01+00:00,243.9332,1.06,12.41,47.84626,-54.09684
2021-03-02 10:09:01+00:00,246.1497,1.0,12.41,47.84626,-54.09684
2021-03-02 10:19:01+00:00,248.9631,1.0,12.41,47.84626,-54.09684
2021-03-02 10:29:01+00:00,258.0047,1.0,12.41,47.84626,-54.09684
2021-03-02 10:39:01+00:00,269.7347,1.0,12.41,47.84626,-54.09684
2021-03-02 10:49:01+00:00,276.3464,0.92,12.41,47.84626,-54.09684
2021-03-02 10:59:01+00:00,284.4681,1.01,12.41,47.84626,-54.09684
2021-03-02 11:09:01+00:00,294.4113,1.0,12.41,47.84626,-54.09684
2021-03-02 11:19:01+00:00,306.408,1.0,12.41,47.84626,-54.09684
2021-03-02 11:29:01+00:00,313.973,1.0,12.41,47.84626,-54.09684
2021-03-02 11:39:01+00:00,319.1713,1.0,12.41,47.84626,-54.09684
2021-03-02 11:49:01+00:00,334.3746,1.0,12.41,47.84626,-54.09684
2021-03-02 11:59:01+00:00,350.7446,1.0,12.41,47.84626,-54.09684
2021-03-02 12:09:01+00:00,357.7713,1.0,12.41,47.84626,-54.09684
2021-03-02 12:19:01+00:00,360.8513,0.98,12.41,47.84626,-54.09684
2021-03-02 12:29:01+00:00,366.2012,0.97,12.41,47.84626,-54.09684
2021-03-02 12:39:01+00:00,374.0245,0.9,12.41,47.84626,-54.09684
2021-03-02 12:49:01+00:00,379.9863,0.9,12.41,47.84626,-54.09684
2021-03-02 12:59:01+00:00,389.8662,0.95,12.41,47.84626,-54.09684
2021-03-02 13:09:01+00:00,395.4596,0.98,12.41,47.84626,-54.09684
2021-03-02 13:19:01+00:00,399.5212,0.96,12.41,47.84626,-54.09684
2021-03-02 13:29:01+00:00,407.1663,1.0,12.41,47.84626,-54.09684
2021-03-02 13:39:01+00:00,407.8779,1.1,12.41,47.84626,-54.09684
2021-03-02 13:49:01+00:00,407.8562,1.1,12.41,47.84626,-54.09684
2021-03-02 13:59:01+00:00,412.3229,1.1,12.41,47.84626,-54.09684
2021-03-02 14:09:01+00:00,413.2679,1.0,12.41,47.84626,-54.09684
2021-03-02 14:19:01+00:00,407.9979,0.9,12.41,47.84626,-54.09684
2021-03-02 14:29:01+00:00,406.5162,0.92,12.41,47.84626,-54.09684
2021-03-02 14:39:01+00:00,408.0729,1.08,12.41,47.84626,-54.09684
2021-03-02 14:49:01+00:00,402.4246,1.1,12.41,47.84626,-54.09684
2021-03-02 14:59:01+00:00,397.4463,1.1,12.41,47.84626,-54.09684
2021-03-02 15:09:01+00:00,393.2762,1.1,12.41,47.84626,-54.09684
2021-03-02 15:19:01+00:00,387.6612,1.05,12.41,47.84626,-54.09684
2021-03-02 15:29:01+00:00,382.5963,1.07,12.41,47.84626,-54.09684
2021-03-02 15:39:01+00:00,376.2196,1.1,12.41,47.84626,-54.09684
2021-03-02 15:49:01+00:00,371.423,1.1,12.41,47.84626,-54.09684
2021-03-02 15:59:01+00:00,362.8313,1.1,12.41,47.84626,-54.09684
2021-03-02 16:09:01+00:00,354.3795,1.1,12.41,47.84626,-54.09684
2021-03-02 16:19:01+00:00,348.9146,1.03,12.41,47.84626,-54.09684
2021-03-02 16:29:01+00:00,338.0262,1.0,12.41,47.84626,-54.09684
2021-03-02 16:39:01+00:00,318.0797,0.9,12.41,47.84626,-54.09684
2021-03-02 16:49:01+00:00,308.1914,0.94,12.41,47.84626,-54.09684
2021-03-02 16:59:01+00:00,310.9296,0.97,12.41,47.84626,-54.09684
2021-03-02 17:09:01+00:00,306.3747,1.0,12.41,47.84626,-54.09684
2021-03-02 17:19:01+00:00,289.9564,1.0,12.41,47.84626,-54.09684
2021-03-02 17:29:01+00:00,286.4514,1.02,12.41,47.84626,-54.09684
2021-03-02 17:39:01+00:00,280.9064,1.08,12.41,47.84626,-54.09684
2021-03-02 17:49:01+00:00,264.7514,1.09,12.41,47.84626,-54.09684
2021-03-02 17:59:01+00:00,247.7631,1.1,12.41,47.84626,-54.09684
2021-03-02 18:09:01+00:00,239.3548,1.1,12.41,47.84626,-54.09684
2021-03-02 18:19:01+00:00,228.4148,1.1,12.41,47.84626,-54.09684
2021-03-02 18:29:01+00:00,212.3582,1.1,12.41,47.84626,-54.09684
2021-03-02 18:39:01+00:00,207.2515,1.1,12.41,47.84626,-54.09684
2021-03-02 18:49:01+00:00,206.9931,1.1,12.41,47.84626,-54.09684
2021-03-02 18:59:01+00:00,196.2298,1.1,12.41,47.84626,-54.09684
2021-03-02 19:09:01+00:00,189.4348,1.1,12.41,47.84626,-54.09684
2021-03-02 19:19:01+00:00,189.6598,1.1,12.41,47.84626,-54.09684
2021-03-02 19:29:01+00:00,179.3015,1.1,12.41,47.84626,-54.09684
2021-03-02 19:39:01+00:00,171.4882,1.1,12.41,47.84626,-54.09684
2021-03-02 19:49:01+00:00,174.6531,1.1,12.41,47.84626,-54.09684
2021-03-02 19:59:01+00:00,172.8198,1.11,12.41,47.84626,-54.09684
2021-03-02 20:09:01+00:00,164.9132,1.11,12.41,47.84626,-54.09684
2021-03-02 20:19:01+00:00,168.9665,1.12,12.57,47.84626,-54.09684
2021-03-02 20:29:01+00:00,174.9515,1.12,12.57,47.84626,-54.09684
2021-03-02 20:39:01+00:00,172.5465,1.11,12.57,47.84626,-54.09684
2021-03-02 20:49:01+00:00,177.0815,1.1,12.57,47.84626,-54.09684
2021-03-02 20:59:01+00:00,184.7015,1.1,12.57,47.84626,-54.09684
2021-03-02 21:09:01+00:00,196.8681,1.1,12.57,47.84626,-54.09684
2021-03-02 21:19:01+00:00,213.5698,1.1,12.49,47.84626,-54.09684
2021-03-02 21:29:01+00:00,207.1264,1.1,12.49,47.84626,-54.09684
2021-03-02 21:39:01+00:00,202.4982,1.1,12.49,47.84626,-54.09684
2021-03-02 21:49:01+00:00,216.0664,1.1,12.49,47.84626,-54.09684
2021-03-02 21:59:01+00:00,229.2664,1.1,12.49,47.84626,-54.09684
2021-03-02 22:09:01+00:00,234.7681,1.1,12.49,47.84626,-54.09684
2021-03-02 22:19:01+00:00,231.2048,1.1,12.41,47.84626,-54.09684
2021-03-02 22:29:01+00:00,238.8964,1.1,12.41,47.84626,-54.09684
2021-03-02 22:39:01+00:00,252.1164,1.1,12.41,47.84626,-54.09684
2021-03-02 22:49:01+00:00,251.6881,1.1,12.41,47.84626,-54.09684
2021-03-02 22:59:01+00:00,243.4664,1.1,12.41,47.84626,-54.09684
2021-03-02 23:09:01+00:00,249.3114,1.1,12.41,47.84626,-54.09684
2021-03-02 23:19:01+00:00,263.7514,1.1,12.41,47.84626,-54.09684
2021-03-02 23:29:01+00:00,263.5414,1.1,12.41,47.84626,-54.09684
2021-03-02 23:39:01+00:00,264.4797,1.1,12.41,47.84626,-54.09684
2021-03-02 23:49:01+00:00,279.7847,1.1,12.41,47.84626,-54.09684
2021-03-02 23:59:01+00:00,291.0197,1.1,12.41,47.84626,-54.09684
